[[{"header":{"parameterUnit":"m.s-1","parameterCategory":1,"la1":30.2991,"la2":30.254,"lo1":-89.0895,"lo2":-89.0444,"dy":0.0017,"dx":0.0017,"nx":28,"ny":28,"refTime":"2024-12-23T09:00:00:Z","depth":0,"parameterNumber":2,"parameterNumberName":"U-component_of_WINDS"},"data":[0,0,0,0,0,0,0,0,0,0,0,0,0,0,0,0,0,0,0,0,0,0,0,0,0,0,0,0,0,0,0,0,0,0,0,0,0,0,0,0,0,0,0,0,0,0,0,0,0,0,0,0,0,0,0,0,0,0,-3.7548,-3.7549,0,-3.767,-3.7671,-3.7673,-3.7586,-3.7582,-3.7578,-3.7575,-3.7702,-3.7709,-3.7716,0,0,0,0,0,0,0,0,0,0,0,0,0,-3.7244,-3.725,-3.7548,-3.7549,-3.7551,-3.767,-3.7672,-3.7673,-3.7587,-3.7582,-3.7577,-3.7573,-3.77,-3.7708,-3.7717,0,0,0,0,0,0,0,0,0,0,0,0,0,-3.7372,-3.7252,-3.7548,-3.7522,-3.7521,-3.767,-3.7672,-3.7674,-3.7588,-3.7582,-3.7576,-3.7571,-3.7697,-3.7708,-3.7718,-3.7899,0,0,-3.775,-3.7755,0,0,0,0,0,0,0,0,-3.7365,-3.7383,-3.7524,-3.7524,-3.7523,-3.7607,-3.7611,-3.7749,-3.7589,-3.7562,-3.7574,-3.7568,-3.7676,-3.7687,-3.7723,-3.7905,-3.7911,-3.7751,-3.7757,-3.7762,-3.7765,0,0,0,0,0,0,0,-3.7356,-3.7378,-3.7596,-3.7526,-3.7526,-3.7506,-3.7518,-3.7637,-3.765,-3.7564,-3.7558,-3.7574,-3.7674,-3.7713,-3.7726,-3.7913,-3.7751,-3.776,-3.7767,-3.7771,-3.8252,-3.8258,0,0,0,0,0,0,-3.7349,-3.7371,-3.7592,-3.76,-3.7428,-3.7516,-3.7529,-3.7586,-3.7649,-3.7652,-3.7579,-3.7569,-3.7698,-3.7713,-3.773,-3.7947,-3.7762,-3.7772,-3.7778,-3.8245,-3.8253,-3.826,0,0,0,0,0,0,-3.7343,-3.737,-3.7587,-3.7484,-3.751,-3.7527,-3.7592,-3.7591,-3.763,-3.7659,-3.7662,-3.7616,-3.7694,-3.7715,-3.7858,-3.795,-3.7777,-3.7786,-3.8238,-3.8248,-3.8256,-3.8382,0,0,0,0,0,0,-3.7334,-3.7368,-3.7436,-3.7486,-3.7516,-3.7713,-3.7597,-3.7598,-3.7648,-3.7637,-3.7695,-3.7699,-3.7691,-3.7843,-3.7868,-3.7961,-3.7794,-3.8229,-3.8242,-3.8253,-3.837,-3.8395,-3.8416,0,0,0,0,0,-3.7324,-3.7467,-3.744,-3.7467,-3.7601,-3.7718,-3.7735,-3.7723,-3.7656,-3.7725,-3.7744,-3.7697,-3.7936,-3.7858,-3.7886,-3.7984,-3.8223,-3.8238,-3.8252,-3.8359,-3.839,-3.8416,0,0,0,0,0,0,-3.7427,-3.7473,-3.7443,-3.7606,-3.7659,-3.7703,-3.779,-3.7755,-3.7829,-3.7815,-3.7797,-3.7811,-3.7961,-3.7987,-3.7899,-3.8164,-3.8069,-3.809,-3.8141,-3.817,-3.8193,-3.8184,-3.7803,0,0,0,0,0,-3.7469,-3.7559,-3.7594,-3.7735,-3.7763,-3.7773,-3.7823,-3.7809,-3.7863,-3.7885,-3.7914,-3.797,-3.8057,-3.8115,-3.8197,-3.8374,-3.8386,-3.8455,-3.8478,-3.8497,-3.8515,-3.8612,-3.8643,-3.8308,-3.8308,-3.8307,0,0,-3.7556,-3.7592,-3.765,-3.7757,-3.7796,-3.7891,-3.7792,-3.7896,-3.7967,-3.7901,-3.8038,-3.8062,-3.8123,-3.8283,-3.8356,-3.8309,-3.8611,-3.8516,-3.853,-3.8538,-3.863,-3.8661,-3.869,-3.8318,-3.8316,-3.8314,0,0,-3.7763,-3.78,-3.7921,-3.7963,-3.8023,-3.8029,-3.8058,-3.8109,-3.8122,-3.8258,-3.8211,-3.8296,-3.8447,-3.8493,-3.8536,-3.8763,-3.8723,-3.8791,-3.8912,-3.9006,-3.9033,-3.9056,-3.9138,-3.9167,-3.8809,-3.8809,-3.881,0,-3.7864,-3.8004,-3.7988,-3.8097,-3.8145,-3.809,-3.8214,-3.8255,-3.8341,-3.8376,-3.8323,-3.8512,-3.8549,-3.872,-3.8776,-3.8813,-3.8847,-3.8784,-3.903,-3.9053,-3.9075,-3.9153,-3.9183,-3.8817,-3.8816,-3.8815,-3.8815,0,-3.8126,-3.8224,-3.8315,-3.8398,-3.8458,-3.8573,-3.8576,-3.8638,-3.862,-3.8632,-3.8773,-3.8816,-3.8906,-3.8946,-3.8929,-3.9116,-3.9085,-3.9032,-3.8937,-3.9115,-3.9188,-3.9217,-3.8828,-3.8825,-3.8823,-3.8821,0,0,-3.84,-3.8473,-3.8507,-3.8545,-3.8609,-3.8685,-3.8799,-3.8887,-3.8941,-3.9003,-3.9099,-3.9229,-3.918,-3.9229,-3.9218,-3.93,-3.9479,-3.9237,-3.9238,-3.928,-3.9689,-3.9728,-3.9763,-3.9453,-3.9459,-3.9463,-3.9683,0,-3.861,-3.8808,-3.8798,-3.8984,-3.9075,-3.9025,-3.9125,-3.9176,-3.9191,-3.9272,-3.9289,-3.9381,-3.931,-3.9339,-3.9419,-3.944,-3.9561,-3.9424,-3.9543,-3.9548,-3.9529,-3.98,-3.9842,-4.0048,-3.9712,-3.9717,-3.972,0,-3.8882,-3.8952,-3.9147,-3.9199,-3.9237,-3.9326,-3.9407,-3.9485,-3.9543,-3.9548,-3.9604,-3.9579,-3.9696,-3.9599,-3.9761,-3.9669,-3.9718,-3.9736,-3.9743,-3.9753,-3.9644,-3.9818,-4.0113,-4.0144,-3.9765,-3.9761,-3.9758,0,-3.9062,-3.9206,-3.9341,-3.9375,-3.9439,-3.9503,-3.9533,-3.9585,-3.9639,-3.971,-3.9746,-3.983,-3.9876,-3.9943,-3.9942,-3.9872,-4.0107,-4.001,-4.0116,-4.0116,-4.0167,-4.0163,-4.0473,-4.0199,-4.0198,-4.0198,-4.0197,0,-3.9298,-3.9419,-3.9423,-3.9506,-3.9642,-3.963,-3.9765,-3.9788,-3.9835,-3.9923,-3.9886,-3.997,-3.9964,-4.005,-4.005,-4.0185,-4.0206,-4.0215,-4.0213,-4.0218,-4.0217,-4.0249,-4.0234,-4.0206,-4.0204,-4.0203,-4.0201,0,-3.9521,-3.9529,-3.9673,-3.9722,-3.9738,-3.9835,-3.9878,-3.9958,-3.997,-4.0083,-4.0108,-4.0128,-4.0227,-4.0233,-4.0348,-4.0348,-4.0512,-4.0495,-4.0492,-4.0489,-4.0595,-4.0585,-4.0936,-4.0982,-4.0678,-4.0681,-4.0683,0,-3.9671,-3.9763,-3.9822,-3.9878,-3.9912,-4.0003,-4.0058,-4.0051,-4.011,-4.0184,-4.0256,-4.0351,-4.0427,-4.0588,-4.0613,-4.0701,-4.0686,-4.0803,-4.0698,-4.0701,-4.0688,-4.0682,-4.0691,-4.0823,-4.0826,-4.0829,-4.0831,0,-3.9936,-3.9935,-4.0015,-4.0099,-4.0165,-4.0231,-4.0291,-4.034,-4.034,-4.0409,-4.0509,-4.0568,-4.0685,-4.0781,-4.0867,-4.0899,-4.0866,-4.0864,-4.0893,-4.0898,-4.0893,-4.0897,-4.0547,-4.0856,-4.0853,-4.0851,-4.085,-4.0849,-4.0127,-4.0207,-4.0261,-4.0353,-4.0398,-4.0456,-4.0534,-4.0556,-4.064,-4.0734,-4.0725,-4.0837,-4.0895,-4.1007,-4.1046,-4.1134,-4.1094,-4.1137,-4.1147,-4.1158,-4.1169,-4.088,-4.115,-4.1149,-4.1149,-4.1148,-4.1148,0,-4.0389,-4.0422,-4.0507,-4.0593,-4.0666,-4.0628,-4.0694,-4.0757,-4.0856,-4.0912,-4.0988,-4.1104,-4.1197,-4.1231,-4.1322,-4.1386,-4.1374,-4.141,-4.1405,-4.1414,-4.1199,-4.1165,-4.1419,-4.1419,-4.1419,-4.1419,-4.1419,-4.1419,-4.0534,-4.0668,-4.0675,-4.0832,-4.0864,-4.0973,-4.1014,-4.1068,-4.1112,-4.1244,-4.1321,-4.1342,-4.139,-4.1485,-4.1569,-4.1577,-4.1612,-4.1656,-4.1657,-4.1456,-4.1428,-4.1402,-4.137,-4.1663,-4.1664,-4.1864,-4.1866,-4.1867]},{"header":{"parameterUnit":"m.s-1","parameterCategory":1,"la1":30.2991,"la2":30.254,"lo1":-89.0895,"lo2":-89.0444,"dy":0.0017,"dx":0.0017,"nx":28,"ny":28,"refTime":"2024-12-23T09:00:00:Z","depth":0,"parameterNumber":3,"parameterNumberName":"V-component_of_WINDS"},"data":[0,0,0,0,0,0,0,0,0,0,0,0,0,0,0,0,0,0,0,0,0,0,0,0,0,0,0,0,0,0,0,0,0,0,0,0,0,0,0,0,0,0,0,0,0,0,0,0,0,0,0,0,0,0,0,0,0,0,0.779,0.779,0,0.7775,0.7775,0.7775,0.7792,0.7793,0.7793,0.7794,0.7774,0.7773,0.7772,0,0,0,0,0,0,0,0,0,0,0,0,0,0.7828,0.7828,0.779,0.779,0.7789,0.7775,0.7775,0.7775,0.7792,0.7793,0.7794,0.7794,0.7775,0.7773,0.7772,0,0,0,0,0,0,0,0,0,0,0,0,0,0.7812,0.7827,0.779,0.7796,0.7797,0.7775,0.7775,0.7775,0.7792,0.7793,0.7794,0.7795,0.7775,0.7774,0.7772,0.7742,0,0,0.7767,0.7766,0,0,0,0,0,0,0,0,0.7813,0.7811,0.7796,0.7796,0.7796,0.7787,0.7782,0.7764,0.7792,0.7794,0.7794,0.7795,0.7777,0.7776,0.7771,0.7741,0.774,0.7767,0.7766,0.7765,0.7764,0,0,0,0,0,0,0,0.7814,0.7812,0.7784,0.7795,0.7796,0.7799,0.7798,0.7778,0.778,0.7793,0.7795,0.7793,0.7778,0.7772,0.777,0.774,0.7767,0.7765,0.7764,0.7763,0.7685,0.7684,0,0,0,0,0,0,0.7815,0.7813,0.7784,0.7783,0.7808,0.7797,0.7796,0.7789,0.778,0.778,0.7792,0.7794,0.7775,0.7772,0.777,0.7734,0.7765,0.7763,0.7762,0.7686,0.7685,0.7684,0,0,0,0,0,0,0.7816,0.7813,0.7785,0.7798,0.7795,0.7796,0.7787,0.7788,0.7782,0.7779,0.7779,0.7786,0.7775,0.7772,0.7749,0.7733,0.7762,0.7761,0.7687,0.7686,0.7684,0.7662,0,0,0,0,0,0,0.7817,0.7813,0.7802,0.7798,0.7794,0.7766,0.7786,0.7787,0.778,0.7782,0.7774,0.7773,0.7776,0.7751,0.7747,0.7731,0.776,0.7689,0.7687,0.7685,0.7664,0.766,0.7656,0,0,0,0,0,0.7819,0.7795,0.7802,0.7798,0.7781,0.7765,0.7762,0.7767,0.7779,0.7767,0.7766,0.7774,0.7736,0.7749,0.7744,0.7728,0.769,0.7687,0.7685,0.7666,0.766,0.7656,0,0,0,0,0,0,0.7795,0.7795,0.7802,0.7777,0.7771,0.7768,0.7753,0.7761,0.775,0.7752,0.7757,0.7755,0.7731,0.7727,0.7742,0.7698,0.7715,0.7711,0.7702,0.7697,0.7693,0.7693,0.7758,0,0,0,0,0,0.7788,0.7776,0.7775,0.7753,0.775,0.7752,0.7745,0.775,0.7743,0.774,0.7737,0.7729,0.7715,0.7706,0.7693,0.7664,0.7662,0.765,0.7647,0.7643,0.764,0.7624,0.7619,0.7676,0.7676,0.7676,0,0,0.7771,0.7769,0.7761,0.7749,0.7745,0.7731,0.775,0.7734,0.7724,0.7737,0.7716,0.7713,0.7704,0.7678,0.7667,0.7674,0.7624,0.764,0.7638,0.7636,0.7621,0.7616,0.7611,0.7674,0.7674,0.7675,0,0,0.7733,0.7731,0.7713,0.7709,0.7704,0.7705,0.7701,0.7697,0.7696,0.7676,0.7685,0.7672,0.7649,0.7643,0.7636,0.7598,0.7605,0.7594,0.7573,0.7557,0.7553,0.7549,0.7535,0.753,0.7591,0.7591,0.7591,0,0.7713,0.7694,0.7702,0.7686,0.768,0.7694,0.7675,0.767,0.766,0.7655,0.7665,0.7636,0.7631,0.7604,0.7595,0.759,0.7584,0.7594,0.7553,0.7549,0.7546,0.7532,0.7527,0.7589,0.759,0.759,0.759,0,0.7669,0.7655,0.7641,0.7633,0.7626,0.7608,0.7613,0.7604,0.7609,0.761,0.7588,0.7584,0.757,0.7565,0.7569,0.7538,0.7543,0.7553,0.7569,0.7539,0.7526,0.7521,0.7587,0.7588,0.7588,0.7589,0,0,0.7614,0.7613,0.7607,0.7604,0.7599,0.7589,0.7572,0.7561,0.7553,0.7546,0.7531,0.7512,0.7522,0.7515,0.7519,0.7505,0.7475,0.7517,0.7517,0.7509,0.744,0.7432,0.7426,0.7481,0.748,0.7479,0.7441,0,0.7576,0.7549,0.7556,0.7528,0.7516,0.7529,0.7515,0.751,0.751,0.7499,0.7499,0.7485,0.75,0.7495,0.7483,0.7482,0.7461,0.7485,0.7465,0.7465,0.7466,0.742,0.7411,0.7375,0.7436,0.7435,0.7435,0,0.7528,0.7521,0.7492,0.7491,0.7486,0.7473,0.7464,0.7453,0.7448,0.7449,0.7443,0.7449,0.7432,0.745,0.7425,0.7441,0.7433,0.7432,0.743,0.7427,0.7447,0.7415,0.7364,0.7358,0.7427,0.7428,0.7428,0,0.749,0.7474,0.7455,0.7452,0.745,0.744,0.7439,0.7435,0.7428,0.742,0.7415,0.7404,0.7398,0.7389,0.7393,0.7405,0.7367,0.7385,0.7366,0.7366,0.7356,0.7356,0.7302,0.7354,0.7354,0.7354,0.7354,0,0.7446,0.7428,0.7438,0.7426,0.7406,0.7415,0.7394,0.7394,0.739,0.7378,0.7389,0.7377,0.7383,0.737,0.7373,0.7352,0.7349,0.7349,0.7349,0.7347,0.7347,0.7341,0.7343,0.7352,0.7353,0.7353,0.7353,0,0.74,0.7406,0.7386,0.7387,0.7387,0.7372,0.7372,0.736,0.7363,0.7347,0.7343,0.7346,0.7333,0.7336,0.732,0.7322,0.7295,0.73,0.7298,0.7298,0.7279,0.7281,0.7218,0.721,0.7268,0.7267,0.7267,0,0.7371,0.7358,0.7358,0.7351,0.7349,0.7338,0.7332,0.734,0.7333,0.7327,0.7316,0.7304,0.7295,0.7272,0.7272,0.726,0.7264,0.7243,0.7262,0.726,0.7262,0.7263,0.7261,0.7238,0.7238,0.7237,0.7237,0,0.7319,0.7323,0.7315,0.7307,0.73,0.7294,0.7289,0.7283,0.7291,0.7282,0.7269,0.7262,0.7248,0.7235,0.7225,0.7222,0.723,0.7231,0.7226,0.7223,0.7222,0.7222,0.7286,0.7232,0.7233,0.7233,0.7233,0.7233,0.728,0.7269,0.7267,0.7258,0.7255,0.7251,0.724,0.7242,0.7232,0.7222,0.7228,0.7213,0.7208,0.7196,0.7192,0.718,0.7187,0.718,0.7178,0.7176,0.7173,0.7225,0.7178,0.7178,0.7178,0.7178,0.7178,0,0.7227,0.7228,0.7219,0.7213,0.7205,0.7216,0.7211,0.7204,0.7191,0.7187,0.7179,0.7164,0.7152,0.7152,0.7141,0.7131,0.7135,0.7128,0.7128,0.7127,0.7167,0.7172,0.7125,0.7125,0.7125,0.7125,0.7125,0.7125,0.7199,0.7181,0.7185,0.7166,0.7166,0.7153,0.715,0.7145,0.7142,0.7126,0.7117,0.7118,0.7115,0.7105,0.7094,0.7094,0.7089,0.7081,0.7082,0.7119,0.7124,0.7129,0.7134,0.708,0.708,0.7043,0.7042,0.7042]}]]